• In Austria
  • List of Countries
  • For 7 days
  • Water Temperature
  • Satellite Maps
  • Weather Map
  • News
  • Weather Widgets
  • user-avatar
    Login

    Hourly Weather Rogatkino

    Today, 23 July, Monday

    Time Temperature Precipitation Wind Pressure Humidity
    00:00 +20°C° 0 mm 1 mps 744 mmHg 98%
    01:00 +19°C° 0 mm 1 mps 744 mmHg 98%
    02:00 +19°C° 0 mm 1 mps 744 mmHg 98%
    03:00 +19°C° 0 mm 1 mps 744 mmHg 98%
    04:00 +19°C° 0 mm 1 mps 744 mmHg 98%
    05:00 +18°C° 0 mm 2 mps 745 mmHg 98%
    06:00 +19°C° 0 mm 2 mps 745 mmHg 93%
    07:00 +21°C° 0 mm 2 mps 745 mmHg 88%
    08:00 +23°C° 0 mm 2 mps 745 mmHg 84%
    09:00 +24°C° 0.2 mm 2 mps 745 mmHg 80%
    10:00 +25°C° 0.2 mm 3 mps 745 mmHg 76%
    11:00 +26°C° 0.2 mm 3 mps 745 mmHg 72%
    12:00 +26°C° 0.5 mm 3 mps 745 mmHg 72%
    13:00 +26°C° 0.5 mm 3 mps 745 mmHg 71%
    14:00 +26°C° 0.5 mm 3 mps 745 mmHg 71%
    15:00 +26°C° 0.1 mm 3 mps 745 mmHg 70%
    16:00 +26°C° 0.1 mm 3 mps 745 mmHg 69%
    17:00 +26°C° 0.1 mm 3 mps 745 mmHg 68%
    18:00 +24°C° 0 mm 2 mps 745 mmHg 75%
    19:00 +23°C° 0 mm 2 mps 745 mmHg 81%
    20:00 +20°C° 0 mm 2 mps 745 mmHg 88%
    21:00 +19°C° 0 mm 2 mps 746 mmHg 91%
    22:00 +18°C° 0 mm 2 mps 746 mmHg 94%
    23:00 +19°C° 0 mm 1 mps 746 mmHg 97%

    Tomorrow, 24 July, Tuesday

    Time Temperature Precipitation Wind Pressure Humidity
    00:00 +18°C° 0 mm 1 mps 746 mmHg 97%
    01:00 +18°C° 0 mm 1 mps 746 mmHg 97%
    02:00 +16°C° 0 mm 1 mps 746 mmHg 98%
    03:00 +16°C° 0 mm 2 mps 746 mmHg 97%
    04:00 +17°C° 0 mm 2 mps 746 mmHg 97%
    05:00 +17°C° 0 mm 2 mps 746 mmHg 96%
    06:00 +18°C° 0 mm 2 mps 747 mmHg 90%
    07:00 +20°C° 0 mm 2 mps 747 mmHg 83%
    08:00 +21°C° 0 mm 3 mps 747 mmHg 77%
    09:00 +22°C° 0 mm 3 mps 747 mmHg 74%
    10:00 +24°C° 0 mm 3 mps 747 mmHg 70%
    11:00 +25°C° 0 mm 3 mps 747 mmHg 67%
    12:00 +25°C° 0.2 mm 3 mps 747 mmHg 67%
    13:00 +25°C° 0.2 mm 3 mps 747 mmHg 68%
    14:00 +26°C° 0.2 mm 3 mps 746 mmHg 68%
    15:00 +25°C° 0.3 mm 3 mps 746 mmHg 71%
    16:00 +25°C° 0.3 mm 3 mps 746 mmHg 74%
    17:00 +25°C° 0.3 mm 3 mps 747 mmHg 78%
    18:00 +24°C° 0.2 mm 3 mps 747 mmHg 82%
    19:00 +21°C° 0.2 mm 2 mps 747 mmHg 87%
    20:00 +20°C° 0.2 mm 2 mps 747 mmHg 92%
    21:00 +19°C° 0 mm 2 mps 747 mmHg 94%
    22:00 +19°C° 0 mm 2 mps 747 mmHg 96%
    23:00 +18°C° 0 mm 2 mps 747 mmHg 98%

    Day after tomorrow, 25 July, Wednesday

    Time Temperature Precipitation Wind Pressure Humidity
    00:00 +18°C° 0 mm 2 mps 747 mmHg 98%
    01:00 +18°C° 0 mm 2 mps 747 mmHg 98%
    02:00 +17°C° 0 mm 2 mps 747 mmHg 98%
    03:00 +17°C° 0 mm 2 mps 747 mmHg 98%
    04:00 +18°C° 0 mm 2 mps 747 mmHg 98%
    05:00 +18°C° 0 mm 2 mps 748 mmHg 98%
    06:00 +19°C° 0 mm 2 mps 748 mmHg 94%
    07:00 +20°C° 0 mm 2 mps 748 mmHg 91%
    08:00 +21°C° 0 mm 2 mps 748 mmHg 87%
    09:00 +24°C° 0.4 mm 2 mps 748 mmHg 84%
    10:00 +25°C° 0.4 mm 2 mps 748 mmHg 81%
    11:00 +26°C° 0.4 mm 3 mps 748 mmHg 78%
    12:00 +26°C° 1 mm 3 mps 748 mmHg 78%
    13:00 +26°C° 1 mm 3 mps 748 mmHg 79%
    14:00 +26°C° 1 mm 4 mps 748 mmHg 80%
    15:00 +25°C° 0.1 mm 4 mps 748 mmHg 75%
    16:00 +25°C° 0.1 mm 4 mps 748 mmHg 70%
    17:00 +23°C° 0.1 mm 4 mps 749 mmHg 65%
    18:00 +22°C° 0 mm 3 mps 749 mmHg 69%
    19:00 +20°C° 0 mm 3 mps 749 mmHg 73%
    20:00 +19°C° 0 mm 2 mps 749 mmHg 77%
    21:00 +18°C° 0.1 mm 2 mps 749 mmHg 80%
    22:00 +18°C° 0.1 mm 2 mps 749 mmHg 83%
    23:00 +18°C° 0.1 mm 2 mps 749 mmHg 87%

    26 July, Thursday

    Time Temperature Precipitation Wind Pressure Humidity
    00:00 +18°C° 0 mm 3 mps 749 mmHg 89%
    01:00 +18°C° 0 mm 3 mps 749 mmHg 92%
    02:00 +18°C° 0 mm 3 mps 749 mmHg 94%
    03:00 +18°C° 0 mm 3 mps 748 mmHg 94%
    04:00 +18°C° 0 mm 3 mps 748 mmHg 94%
    05:00 +18°C° 0 mm 3 mps 748 mmHg 94%
    06:00 +18°C° 0.2 mm 3 mps 748 mmHg 92%
    07:00 +19°C° 0.2 mm 3 mps 748 mmHg 91%
    08:00 +19°C° 0.2 mm 3 mps 748 mmHg 89%
    09:00 +20°C° 0.2 mm 3 mps 748 mmHg 89%
    10:00 +20°C° 0.2 mm 3 mps 749 mmHg 88%
    11:00 +21°C° 0.2 mm 3 mps 749 mmHg 88%
    12:00 +21°C° 0.5 mm 3 mps 749 mmHg 89%
    13:00 +22°C° 0.5 mm 3 mps 749 mmHg 89%
    14:00 +22°C° 0.5 mm 3 mps 749 mmHg 90%
    15:00 +22°C° 0.3 mm 3 mps 749 mmHg 89%
    16:00 +24°C° 0.3 mm 3 mps 749 mmHg 88%
    17:00 +24°C° 0.3 mm 3 mps 749 mmHg 88%
    18:00 +23°C° 0.5 mm 2 mps 749 mmHg 90%
    19:00 +23°C° 0.5 mm 2 mps 749 mmHg 92%
    20:00 +21°C° 0.5 mm 2 mps 749 mmHg 94%
    21:00 +21°C° 0.8 mm 2 mps 749 mmHg 95%
    22:00 +20°C° 0.8 mm 2 mps 749 mmHg 96%
    23:00 +20°C° 0.8 mm 2 mps 749 mmHg 96%

    27 July, Friday

    Time Temperature Precipitation Wind Pressure Humidity
    00:00 +20°C° 0.1 mm 2 mps 750 mmHg 97%
    01:00 +20°C° 0.1 mm 2 mps 750 mmHg 97%
    02:00 +20°C° 0.1 mm 2 mps 750 mmHg 97%
    03:00 +20°C° 0 mm 2 mps 750 mmHg 97%
    04:00 +20°C° 0 mm 2 mps 750 mmHg 97%
    05:00 +20°C° 0 mm 2 mps 750 mmHg 98%
    06:00 +21°C° 0 mm 2 mps 750 mmHg 95%
    07:00 +23°C° 0 mm 2 mps 750 mmHg 93%
    08:00 +24°C° 0 mm 2 mps 751 mmHg 91%
    09:00 +26°C° 0.2 mm 3 mps 751 mmHg 83%
    10:00 +27°C° 0.2 mm 3 mps 751 mmHg 76%
    11:00 +29°C° 0.2 mm 3 mps 751 mmHg 68%
    12:00 +30°C° 0.1 mm 3 mps 751 mmHg 63%
    13:00 +31°C° 0.1 mm 3 mps 751 mmHg 58%
    14:00 +33°C° 0.1 mm 3 mps 751 mmHg 53%
    15:00 +31°C° 0.1 mm 3 mps 751 mmHg 56%
    16:00 +31°C° 0.1 mm 3 mps 751 mmHg 58%
    17:00 +30°C° 0.1 mm 3 mps 751 mmHg 60%
    18:00 +28°C° 0.6 mm 3 mps 751 mmHg 70%
    19:00 +26°C° 0.6 mm 3 mps 751 mmHg 79%
    20:00 +24°C° 0.6 mm 2 mps 751 mmHg 88%
    21:00 +23°C° 0.2 mm 2 mps 751 mmHg 89%
    22:00 +23°C° 0.2 mm 2 mps 752 mmHg 90%
    23:00 +23°C° 0.2 mm 2 mps 752 mmHg 91%

    28 July, Saturday

    Time Temperature Precipitation Wind Pressure Humidity
    00:00 +21°C° 0.4 mm 2 mps 752 mmHg 92%
    01:00 +21°C° 0.4 mm 2 mps 752 mmHg 94%
    02:00 +21°C° 0.4 mm 2 mps 752 mmHg 95%
    03:00 +21°C° 1.2 mm 2 mps 753 mmHg 95%
    04:00 +21°C° 1.2 mm 2 mps 753 mmHg 96%
    05:00 +20°C° 1.2 mm 2 mps 753 mmHg 96%
    06:00 +23°C° 0 mm 2 mps 753 mmHg 91%
    07:00 +24°C° 0 mm 2 mps 753 mmHg 87%
    08:00 +25°C° 0 mm 2 mps 753 mmHg 82%
    09:00 +27°C° 0 mm 3 mps 753 mmHg 72%
    10:00 +29°C° 0 mm 3 mps 753 mmHg 61%
    11:00 +30°C° 0 mm 3 mps 754 mmHg 50%
    12:00 +31°C° 0 mm 3 mps 753 mmHg 48%
    13:00 +31°C° 0 mm 3 mps 753 mmHg 46%
    14:00 +32°C° 0 mm 4 mps 753 mmHg 44%
    15:00 +31°C° 0 mm 3 mps 753 mmHg 48%
    16:00 +31°C° 0 mm 2 mps 753 mmHg 52%
    17:00 +30°C° 0 mm 2 mps 753 mmHg 56%
    18:00 +28°C° 0 mm 2 mps 753 mmHg 63%
    19:00 +26°C° 0 mm 2 mps 754 mmHg 70%
    20:00 +24°C° 0 mm 2 mps 754 mmHg 77%
    21:00 +23°C° 0 mm 2 mps 754 mmHg 79%
    22:00 +23°C° 0 mm 2 mps 754 mmHg 81%
    23:00 +21°C° 0 mm 2 mps 754 mmHg 83%
    Show more